DBair |  Recent searches |  Recent views |  Contact us |  Sign In
DBair, not only an aviation database

Prince Abdul Majeed Airport, Al-Ula, Saudi Arabia

METAR

2014/09/01 21:00
OEAO 012100Z 32006KT CAVOK 34/02 Q1008

TAF

2014/08/23 06:00
TAF OEAO 230430Z 2306/2320 34010KT 7000 FEW040 SCT100 
      BECMG 2310/2312 07015KT PROB30 
      TEMPO 2312/2318 FEW035CB
Name:Prince Abdul Majeed Airport
City:Al-Ula
Country:Saudi Arabia
IATA/FAA:ULH
ICAO:OEAO
Latitude:26.6367180
Longitude:37.9080180
Altitude:2047 (in feet)
Timezone: 3 (hours offset from UTC)
DST:N (None)
Keywords: prince abdul majeed airport, al-ula, saudi arabia, ulh, oeao, 26.636718, 37.908018,

Map:

Full ICAO list |  Full IATA list |  Full airport list